Location: Berlise
(49.6641°N, 4.1077°E)
Time: 22:45:16
(UTC+00:00)

Cosmos 1606 Rocket - Pass Details

Date: 27 January 2021
Orbit: 604 x 631 km, 82.5° (Epoch: 01 March)

Event Time Altitude Azimuth Distance (km) Brightness Sun altitude
Rises 05:27:59 0° 179° (S) 2,846 7.1 -18.4°
Reaches altitude 10° 05:30:12 10° 175° (S) 1,948 6.2 -18.1°
Maximum altitude 05:34:27 61° 96° (E) 692 4.0 -17.4°
Drops below altitude 10° 05:38:45 10° 16° (NNE) 1,972 6.2 -16.7°
Sets 05:41:00 0° 13° (NNE) 2,885 7.0 -16.4°
